Home   Weather   Babylon   Past weeks

Flag for USA Past Weather in Babylon, New York, USA — Yesterday and Last 2 Weeks

50 °F


Feels Like: 44 °F
Forecast: 46 / 60 °F
Wind: 18 mph from West

Location: Republic Airport

Current Time: Oct 22, 2016 at 9:24:05 PM

Latest Report: Oct 22, 2016 at 8:53 PM

Visibility: 10 mi

Pressure: 29.61 "Hg

Humidity: 57%

Dew Point: 35 °F

Location of BabylonLocation

Past Weather in Babylon — Graph


Babylon Temperature Yesterday

Maximum temperature yesterday: 73 °F (at 12:53 PM)
Minimum temperature yesterday: 66 °F (at 12:53 AM)
Average temperature yesterday: 68 °F

High & Low Weather Summary for the Past Weeks

High83 °F (Oct 19, 1:53 PM)100% (Oct 9, 1:00 PM)30.45 "Hg (Oct 9, 1:00 PM)
Low44 °F (Oct 15, 3:53 AM)30% (Oct 10, 3:53 PM)29.36 "Hg (Oct 22, 8:53 AM)
Average62 °F79%30.01 "Hg
* Reported Oct 7 7:53 PM — Oct 22 7:53 PM, Babylon, Weather by CustomWeather, © 2016

Note: Actual official high and low records may vary slightly from our data, if they occured in-between our weather recording intervals... More about our weather records


Babylon Weather History for the Previous 24 Hours

Scroll right to see more
Time TempWeatherWind HumidityBarometerVisibility
7:53 PM
Sat, Oct 22
48 °FMostly cloudy.20 mph68%29.60 "Hg10 mi
6:53 PM48 °FMostly cloudy.20 mph68%29.58 "Hg10 mi
5:53 PM49 °FMostly cloudy.17 mph69%29.54 "Hg10 mi
4:53 PM49 °FMostly cloudy.21 mph69%29.51 "Hg10 mi
3:53 PM50 °FCloudy.15 mph68%29.47 "Hg10 mi
2:53 PM48 °FCloudy.17 mph80%29.45 "Hg10 mi
1:53 PM46 °FRain. Overcast.14 mph86%29.44 "Hg9 mi
12:53 PM49 °FLight rain. Mostly cloudy.15 mph71%29.41 "Hg10 mi
11:53 AM50 °FOvercast.16 mph77%29.40 "Hg10 mi
10:53 AM50 °FOvercast.14 mph86%29.39 "Hg10 mi
9:53 AM52 °FLight rain. Mostly cloudy.10 mph89%29.37 "Hg10 mi
8:53 AM51 °FRain. Mostly cloudy.15 mph89%29.36 "Hg10 mi
7:53 AM52 °FCloudy.7 mph93%29.37 "Hg10 mi
6:53 AM54 °FLight rain. Overcast.10 mph90%29.36 "Hg10 mi
5:53 AM53 °FLow clouds.14 mph93%29.36 "Hg10 mi
4:53 AM56 °FLight rain. Low clouds.13 mph93%29.37 "Hg7 mi
3:53 AM58 °FOvercast.10 mph90%29.37 "Hg10 mi
2:53 AM59 °FLow clouds.15 mph96%29.37 "Hg10 mi
1:53 AM63 °FLow clouds.12 mph97%29.37 "Hg7 mi
12:57 AM65 °FFog.5 mph100%29.38 "Hg3 mi
11:53 PM
Fri, Oct 21
66 °FFog.No wind96%29.40 "Hg1 mi
10:53 PM66 °FFog.No wind96%29.43 "Hg1 mi
10:02 PM67 °FFog.3 mph97%29.45 "Hg3 mi
9:53 PM67 °FFog.3 mph97%29.46 "Hg1 mi
Weather by CustomWeather, © 2016

See weather overviewHow to use our weather pages